Temp
-15 -14 -14 -13 -12 -12 -12 -12 -12 -12 -12 -12 -13 -14 -14 -14 -15 -15 -15 -15 -15 -16 -16 -16 -16 -16 -15 -15 -15 -15 -15 -14
-15 -15 -15 -15 -14 -14 -14 -13 -14 -14 -14 -14 -14 -14 -14 -14 -14 -14 -15 -15 -15 -16 -16 -15 -15 -16 -15 -15 -15 -15 -15 -15
-15 -15 -14 -14 -14 -14 -14 -14 -14 -14 -14 -14 -14 -14 -14 -15 -15 -15 -15 -15 -16 -16 -16 -16 -16 -15 -16 -15 -15 -15 -15 -15
-15 -15 -14 -14 -14 -14 -14 -14 -14 -14 -14 -14 -14 -14 -14 -15 -15 -15 -15 -16 -16 -15 -15 -16 -16 -16 -16 -16 -16 -15 -15 -15
-14 -15 -15 -15 -15 -15 -14 -14 -15 -15 -15 -15 -15 -15 -15 -15 -15 -15 -16 -16 -16 -16 -16 -16 -16 -16 -16 -16 -16 -16 -16 -16
-14 -15 -15 -15 -15 -15 -15 -15 -15 -15 -15 -15 -15 -15 -14 -14 -15 -15 -16 -15 -15 -16 -16 -16 -16 -16 -16 -16 -16 -16 -16 -15
-15 -15 -15 -15 -15 -15 -15 -15 -16 -16 -16 -16 -15 -15 -15 -15 -15 -15 -15 -15 -15 -16 -16 -16 -16 -16 -16 -17 -16 -16 -16 -16
-14 -15 -15 -14 -14 -14 -15 -15 -15 -15 -15 -15 -15 -15 -15 -16 -15 -15 -15 -15 -16 -15 -16 -16 -16 -16 -16 -16 -16 -16 -16 -16
-14 -14 -15 -15 -15 -15 -14 -14 -14 -14 -14 -14 -13 -14 -15 -14 -15 -15 -16 -16 -16 -16 -16 -16 -16 -16 -16 -16 -16 -16 -16 -16
-13 -14 -14 -15 -15 -15 -14 -14 -14 -14 -14 -14 -14 -14 -15 -15 -15 -15 -16 -16 -16 -16 -16 -16 -16 -16 -16 -16 -16 -16 -16 -16
-14 -14 -14 -14 -15 -15 -15 -14 -14 -14 -14 -14 -15 -15 -15 -16 -15 -15 -15 -16 -16 -16 -16 -16 -16 -17 -17 -17 -17 -16 -16 -16
-15 -15 -14 -15 -15 -15 -15 -15 -15 -15 -15 -14 -15 -15 -15 -15 -15 -16 -16 -15 -16 -16 -16 -17 -17 -17 -17 -17 -17 -16 -16 -17
-15 -15 -15 -15 -14 -14 -15 -15 -15 -15 -14 -15 -16 -15 -15 -16 -15 -14 -16 -16 -16 -16 -17 -17 -17 -17 -17 -17 -17 -17 -17 -17
-14 -15 -15 -15 -15 -14 -14 -14 -15 -15 -15 -15 -14 -14 -14 -16 -15 -15 -16 -17 -17 -17 -17 -17 -17 -17 -17 -17 -17 -17 -17 -17
-14 -15 -16 -15 -15 -15 -15 -16 -16 -15 -14 -15 -15 -15 -16 -16 -16 -16 -17 -17 -17 -17 -18 -18 -18 -17 -17 -17 -17 -17 -17 -17
-15 -15 -15 -15 -16 -16 -15 -15 -15 -15 -15 -15 -15 -15 -15 -16 -16 -16 -17 -18 -18 -18 -18 -17 -17 -17 -17 -17 -17 -17 -17 -17
-17 -16 -15 -15 -15 -16 -15 -15 -15 -16 -16 -16 -16 -16 -16 -16 -17 -17 -18 -18 -18 -18 -17 -17 -17 -17 -17 -17 -17 -17 -17 -18
-17 -16 -15 -15 -15 -15 -15 -15 -15 -15 -15 -15 -15 -16 -16 -16 -16 -17 -17 -17 -17 -17 -17 -17 -17 -17 -18 -18 -18 -18 -18 -18
-16 -16 -16 -15 -15 -15 -15 -15 -15 -15 -15 -15 -15 -15 -16 -16 -16 -17 -17 -17 -17 -17 -17 -17 -18 -18 -18 -18 -18 -18 -18 -19
Height
5741 5742 5739 5737 5740 5740 5740 5742 5743 5745 5745 5745 5748 5751 5755 5757 5761 5765 5768 5770 5770 5774 5777 5780 5781 5782 5783 5784 5784 5785 5784 5784
5743 5744 5741 5742 5742 5743 5742 5743 5744 5746 5750 5751 5751 5754 5758 5762 5765 5766 5768 5768 5769 5773 5774 5776 5777 5778 5778 5779 5779 5780 5779 5779
5740 5740 5741 5743 5742 5744 5746 5745 5747 5750 5750 5750 5753 5756 5758 5761 5761 5761 5763 5764 5766 5769 5771 5772 5771 5773 5773 5773 5773 5773 5772 5771
5740 5741 5743 5745 5745 5745 5745 5745 5746 5748 5748 5750 5750 5753 5755 5756 5757 5758 5760 5761 5764 5767 5768 5768 5768 5768 5769 5769 5767 5765 5764 5762
5741 5741 5741 5742 5744 5744 5745 5745 5745 5745 5746 5748 5749 5750 5751 5752 5754 5756 5757 5758 5762 5762 5762 5763 5764 5763 5763 5763 5761 5760 5757 5756
5741 5744 5742 5741 5741 5742 5743 5743 5742 5743 5745 5747 5748 5749 5751 5752 5752 5754 5755 5757 5758 5757 5757 5757 5759 5759 5757 5756 5754 5752 5749 5745
5740 5740 5741 5742 5742 5743 5740 5739 5739 5742 5744 5746 5747 5747 5747 5747 5748 5750 5749 5751 5752 5753 5752 5753 5752 5752 5750 5747 5745 5742 5741 5739
5736 5738 5738 5738 5739 5738 5737 5739 5740 5740 5738 5738 5740 5741 5740 5741 5743 5745 5746 5747 5747 5747 5747 5747 5745 5743 5742 5741 5739 5736 5733 5729
5736 5735 5735 5734 5733 5733 5734 5735 5735 5737 5737 5736 5737 5737 5736 5737 5739 5740 5740 5739 5739 5739 5739 5739 5738 5737 5736 5734 5733 5729 5725 5721
5728 5731 5732 5733 5732 5731 5732 5731 5732 5732 5732 5734 5733 5733 5734 5733 5730 5733 5733 5732 5731 5732 5730 5730 5730 5729 5727 5725 5722 5718 5714 5711
5723 5724 5727 5729 5730 5730 5729 5729 5729 5729 5729 5729 5729 5729 5726 5726 5726 5725 5724 5724 5724 5724 5723 5722 5720 5720 5718 5716 5712 5709 5704 5701
5720 5720 5720 5723 5726 5727 5727 5727 5726 5725 5724 5725 5724 5722 5722 5720 5717 5715 5713 5710 5712 5713 5714 5715 5713 5711 5708 5705 5701 5697 5694 5690
5719 5718 5717 5717 5718 5720 5722 5720 5718 5718 5717 5717 5715 5714 5715 5711 5712 5690 5694 5709 5711 5710 5706 5705 5703 5700 5697 5693 5690 5686 5683 5680
5717 5715 5713 5713 5713 5714 5713 5710 5711 5702 5712 5707 5701 5707 5700 5707 5706 5705 5701 5700 5699 5698 5696 5694 5692 5689 5686 5682 5680 5677 5673 5668
5710 5712 5709 5708 5709 5706 5706 5703 5700 5705 5704 5702 5704 5700 5699 5697 5694 5694 5693 5692 5693 5691 5689 5686 5682 5680 5677 5674 5670 5666 5661 5655
5701 5701 5703 5709 5707 5702 5701 5700 5698 5697 5698 5699 5697 5697 5694 5692 5691 5688 5686 5685 5684 5682 5678 5675 5672 5670 5667 5663 5659 5653 5648 5643
5694 5689 5690 5698 5703 5701 5695 5692 5690 5689 5691 5692 5691 5689 5687 5685 5683 5679 5676 5675 5673 5671 5668 5666 5663 5659 5656 5652 5646 5641 5636 5630
5688 5686 5686 5686 5691 5692 5692 5690 5687 5685 5684 5683 5682 5679 5676 5674 5671 5670 5668 5666 5664 5662 5659 5656 5652 5649 5645 5639 5634 5628 5622 5616
5683 5682 5682 5682 5683 5683 5683 5683 5682 5680 5678 5676 5673 5671 5668 5666 5663 5661 5659 5657 5654 5651 5648 5645 5642 5637 5632 5627 5621 5615 5608 5601
Wind_Speed
11 8 5 4 7 7 8 11 11 10 6 6 8 15 19 16 16 15 14 12 8 6 9 10 12 12 16 17 16 19 18 20
6 8 12 10 10 13 17 19 20 19 18 18 18 17 16 14 13 11 6 4 3 7 10 14 14 15 18 20 20 21 22 23
2 8 9 9 10 12 14 16 15 14 14 15 15 13 11 7 4 2 2 3 6 10 12 14 14 17 19 22 23 25 27 29
2 2 7 9 10 9 9 10 10 10 10 9 9 7 5 2 0 2 5 6 7 10 11 11 15 18 19 22 29 32 33 36
3 3 6 7 7 8 8 8 8 7 6 4 3 3 3 3 3 4 7 8 9 10 11 12 14 21 26 29 30 31 34 38
2 6 6 5 3 4 5 6 6 3 1 2 3 4 5 6 6 5 7 10 9 10 15 18 22 24 28 34 39 39 34 38
4 2 2 5 3 1 2 4 4 2 1 3 4 4 5 6 8 6 9 12 12 13 16 17 17 25 28 31 28 30 33 37
6 6 6 8 4 4 2 2 4 4 5 7 7 9 7 9 10 10 13 14 13 17 17 17 20 22 25 26 30 31 31 30
10 12 9 9 8 8 9 9 9 10 11 13 13 13 12 14 16 13 19 19 21 21 21 21 24 27 28 28 30 32 34 35
15 12 13 7 9 11 13 14 15 15 17 16 16 19 20 20 24 22 25 24 25 25 24 27 30 31 33 34 34 36 36 37
13 15 14 14 16 17 17 17 17 18 18 19 19 22 24 26 28 28 29 31 26 25 26 32 35 37 38 38 38 38 39 40
13 16 20 20 19 20 21 20 21 23 24 21 23 26 27 31 33 36 38 28 30 32 34 35 40 40 40 42 40 40 42 44
16 17 18 18 15 14 15 23 25 25 27 26 29 31 30 37 40 44 31 32 37 38 38 39 38 40 41 40 42 43 44 45
15 17 19 21 21 19 20 25 31 26 33 26 29 29 34 29 29 34 36 38 39 39 39 40 41 42 42 43 44 44 45 47
24 17 20 23 22 23 24 30 28 22 24 23 29 29 35 35 36 38 39 39 37 37 39 42 41 42 43 43 44 44 47 50
28 24 26 18 19 24 26 30 31 31 28 28 29 32 35 37 39 39 39 38 39 42 41 41 42 43 43 43 45 47 50 54
31 32 32 23 18 22 25 29 32 32 32 33 34 37 39 39 39 38 39 41 44 42 42 43 43 44 45 45 48 51 54 58
23 29 31 31 22 23 25 28 30 32 34 36 38 40 40 41 41 41 44 46 43 42 42 43 44 45 46 49 52 56 59 62
31 31 28 26 24 23 26 28 30 32 34 36 38 39 40 41 42 43 42 42 42 43 43 44 45 47 50 52 56 59 62 64
Wind_Direction
50 60 136 167 214 228 226 202 204 203 179 184 162 145 139 134 129 142 153 157 151 173 209 223 237 248 235 231 237 248 258 263
61 80 78 95 134 124 119 119 113 113 123 123 122 132 141 149 157 153 150 159 184 228 248 249 255 257 245 238 250 262 268 277
29 89 103 122 117 129 126 119 121 123 122 118 124 126 129 133 119 111 188 218 242 246 240 254 266 259 250 255 263 270 278 281
82 93 119 124 129 125 119 117 123 118 117 112 110 113 114 106 49 316 300 292 283 275 276 267 276 272 261 273 279 282 282 286
99 70 75 71 86 104 118 118 109 97 83 75 55 48 25 351 328 316 304 301 293 287 290 285 277 283 286 283 279 283 282 288
117 129 108 91 81 85 103 101 77 71 15 326 316 288 274 271 275 301 282 277 274 290 300 298 299 300 293 296 283 279 279 281
175 213 106 47 32 99 92 74 67 74 311 296 305 307 267 262 269 263 261 271 285 277 295 301 307 309 308 316 308 293 285 288
244 227 289 313 319 321 329 246 247 259 291 305 309 297 303 298 289 283 275 271 273 276 288 300 304 307 304 310 309 305 295 287
255 246 263 306 316 308 297 293 290 278 270 280 278 278 283 279 273 260 270 280 290 287 285 292 300 301 304 301 297 298 294 298
263 255 264 273 299 299 292 293 281 274 276 270 265 273 262 270 268 261 269 274 274 274 274 291 296 301 304 301 298 304 298 300
308 286 276 277 292 293 290 285 283 281 271 265 256 258 267 271 267 272 271 274 272 285 295 299 303 305 303 302 300 301 300 301
289 283 287 285 283 281 282 275 275 272 267 262 265 265 265 267 271 265 259 291 302 305 303 300 298 299 300 299 299 302 304 304
284 282 283 284 290 299 287 268 268 268 262 262 265 274 275 271 272 263 308 296 294 298 297 299 298 299 301 302 303 304 304 303
288 274 275 282 288 288 282 278 269 255 270 263 265 286 287 284 293 284 291 300 302 300 299 300 300 301 302 302 302 302 302 304
267 270 261 273 287 295 294 291 295 290 291 293 284 288 289 289 294 296 297 296 293 295 293 294 297 298 297 299 300 301 304 305
285 268 268 257 268 279 287 287 288 293 293 288 288 284 287 288 288 288 287 287 288 290 293 294 295 296 297 298 300 302 302 304
300 279 282 284 264 257 270 277 280 284 286 286 286 286 287 285 283 284 286 285 290 291 291 292 293 294 297 299 299 302 303 305
281 278 283 290 280 263 267 270 275 281 285 288 287 287 286 287 288 285 283 286 287 289 291 292 293 295 297 298 301 303 303 305
269 271 281 288 286 277 275 276 281 282 284 285 286 286 285 285 284 282 283 285 287 290 291 291 293 296 297 299 300 301 304 305